Time,TemperatureF,DewpointF,PressureIn,WindDirection,WindDirectionDegrees,WindSpeedMPH,WindSpeedGustMPH,Humidity,HourlyPrecipIn,Conditions,Clouds,dailyrainin,SoftwareType,DateUTC
2013-02-21 00:00:00,18.2,14.7,30.26,WSW,255,0.0,6.0,86,0.00,,---,0.00,VWS V14.00,2013-02-21 05:00:00,
2013-02-21 00:05:00,18.1,14.6,30.26,West,261,2.0,2.0,86,0.00,,---,0.00,VWS V14.00,2013-02-21 05:05:00,
2013-02-21 00:10:00,18.2,14.7,30.26,West,273,2.0,6.0,86,0.00,,---,0.00,VWS V14.00,2013-02-21 05:10:00,
2013-02-21 00:15:00,18.1,14.6,30.26,West,270,0.0,6.0,86,0.00,,---,0.00,VWS V14.00,2013-02-21 05:15:00,
2013-02-21 00:20:00,18.1,14.6,30.26,WNW,291,0.0,6.0,86,0.00,,---,0.00,VWS V14.00,2013-02-21 05:20:00,
2013-02-21 00:25:00,18.1,14.6,30.26,SW,228,2.0,6.0,86,0.00,,---,0.00,VWS V14.00,2013-02-21 05:25:00,
2013-02-21 00:30:00,18.1,14.6,30.26,West,261,0.0,6.0,86,0.00,,---,0.00,VWS V14.00,2013-02-21 05:30:00,
2013-02-21 00:35:00,18.1,14.6,30.27,WSW,240,6.0,6.0,86,0.00,,---,0.00,VWS V14.00,2013-02-21 05:35:00,
2013-02-21 00:40:00,18.0,14.5,30.27,SW,236,0.0,6.0,86,0.00,,---,0.00,VWS V14.00,2013-02-21 05:40:00,
2013-02-21 00:45:00,18.0,14.5,30.27,WSW,241,0.0,6.0,86,0.00,,---,0.00,VWS V14.00,2013-02-21 05:45:00,
2013-02-21 00:50:00,18.0,14.5,30.26,WSW,240,0.0,6.0,86,0.00,,---,0.00,VWS V14.00,2013-02-21 05:50:00,
2013-02-21 00:55:00,18.0,14.5,30.27,WSW,248,0.0,6.0,86,0.00,,---,0.00,VWS V14.00,2013-02-21 05:55:00,
2013-02-21 01:00:00,17.9,14.4,30.26,WSW,249,0.0,6.0,86,0.00,,---,0.00,VWS V14.00,2013-02-21 06:00:00,
2013-02-21 01:05:00,18.0,14.5,30.26,NNE,32,0.0,5.0,86,0.00,,---,0.00,VWS V14.00,2013-02-21 06:05:00,
2013-02-21 01:10:00,18.0,14.5,30.26,West,281,1.0,6.0,86,0.00,,---,0.00,VWS V14.00,2013-02-21 06:10:00,
2013-02-21 01:15:00,17.9,14.4,30.26,West,279,0.0,6.0,86,0.00,,---,0.00,VWS V14.00,2013-02-21 06:15:00,
2013-02-21 01:20:00,17.9,14.7,30.26,West,279,0.0,6.0,87,0.00,,---,0.00,VWS V14.00,2013-02-21 06:20:00,
2013-02-21 01:25:00,17.9,14.4,30.26,West,270,4.0,6.0,86,0.00,,---,0.00,VWS V14.00,2013-02-21 06:25:00,
2013-02-21 01:30:00,17.9,14.7,30.27,WSW,238,3.0,6.0,87,0.00,,---,0.00,VWS V14.00,2013-02-21 06:30:00,
2013-02-21 01:35:00,17.9,14.7,30.27,WSW,252,0.0,4.0,87,0.00,,---,0.00,VWS V14.00,2013-02-21 06:35:00,
2013-02-21 01:40:00,17.9,14.7,30.27,WSW,237,2.0,5.0,87,0.00,,---,0.00,VWS V14.00,2013-02-21 06:40:00,
2013-02-21 01:45:00,17.9,14.7,30.27,WSW,242,1.0,5.0,87,0.00,,---,0.00,VWS V14.00,2013-02-21 06:45:00,
2013-02-21 01:50:00,17.9,14.7,30.27,West,259,0.0,8.0,87,0.00,,---,0.00,VWS V14.00,2013-02-21 06:50:00,
2013-02-21 01:55:00,17.9,14.7,30.27,West,260,0.0,8.0,87,0.00,,---,0.00,VWS V14.00,2013-02-21 06:55:00,
2013-02-21 02:00:00,17.9,14.7,30.28,WSW,250,1.0,8.0,87,0.00,,---,0.00,VWS V14.00,2013-02-21 07:00:00,
2013-02-21 02:05:00,17.9,14.7,30.28,WSW,239,0.0,7.0,87,0.00,,---,0.00,VWS V14.00,2013-02-21 07:05:00,
2013-02-21 02:10:00,17.9,14.7,30.28,WSW,240,0.0,7.0,87,0.00,,---,0.00,VWS V14.00,2013-02-21 07:10:00,
2013-02-21 02:15:00,17.9,14.7,30.28,WSW,257,0.0,7.0,87,0.00,,---,0.00,VWS V14.00,2013-02-21 07:15:00,
2013-02-21 02:20:00,17.9,14.9,30.27,NW,309,0.0,8.0,88,0.00,,---,0.00,VWS V14.00,2013-02-21 07:20:00,
2013-02-21 02:25:00,17.9,14.9,30.27,West,266,0.0,8.0,88,0.00,,---,0.00,VWS V14.00,2013-02-21 07:25:00,
2013-02-21 02:30:00,17.9,14.9,30.27,West,266,0.0,8.0,88,0.00,,---,0.00,VWS V14.00,2013-02-21 07:30:00,
2013-02-21 02:35:00,18.0,15.1,30.27,West,266,0.0,2.0,88,0.00,,---,0.00,VWS V14.00,2013-02-21 07:35:00,
2013-02-21 02:40:00,18.0,15.1,30.27,West,276,0.0,6.0,88,0.00,,---,0.00,VWS V14.00,2013-02-21 07:40:00,
2013-02-21 02:45:00,18.0,15.1,30.27,West,275,2.0,6.0,88,0.00,,---,0.00,VWS V14.00,2013-02-21 07:45:00,
2013-02-21 02:50:00,18.0,15.1,30.27,West,275,0.0,6.0,88,0.00,,---,0.00,VWS V14.00,2013-02-21 07:50:00,
2013-02-21 02:55:00,18.0,15.1,30.27,West,275,0.0,6.0,88,0.00,,---,0.00,VWS V14.00,2013-02-21 07:55:00,
2013-02-21 03:00:00,18.0,15.3,30.27,WNW,282,0.0,6.0,89,0.00,,---,0.00,VWS V14.00,2013-02-21 08:00:00,
2013-02-21 03:05:00,18.0,15.3,30.27,NNW,344,0.0,2.0,89,0.00,,---,0.00,VWS V14.00,2013-02-21 08:05:00,
2013-02-21 03:10:00,18.0,15.3,30.27,NNW,336,1.0,5.0,89,0.00,,---,0.00,VWS V14.00,2013-02-21 08:10:00,
2013-02-21 03:15:00,18.1,15.4,30.27,NNW,340,4.0,5.0,89,0.00,,---,0.00,VWS V14.00,2013-02-21 08:15:00,
2013-02-21 03:20:00,18.1,15.4,30.27,NNW,340,1.0,5.0,89,0.00,,---,0.00,VWS V14.00,2013-02-21 08:20:00,
2013-02-21 03:25:00,18.1,15.4,30.27,NNW,340,0.0,5.0,89,0.00,,---,0.00,VWS V14.00,2013-02-21 08:25:00,
2013-02-21 03:30:00,18.1,15.4,30.27,NNW,340,0.0,5.0,89,0.00,,---,0.00,VWS V14.00,2013-02-21 08:30:00,
2013-02-21 03:35:00,18.1,15.4,30.27,NNE,14,0.0,2.0,89,0.00,,---,0.00,VWS V14.00,2013-02-21 08:35:00,
2013-02-21 03:40:00,18.1,15.7,30.27,NNE,14,0.0,2.0,90,0.00,,---,0.00,VWS V14.00,2013-02-21 08:40:00,
2013-02-21 03:45:00,18.2,15.8,30.27,NNE,14,0.0,2.0,90,0.00,,---,0.00,VWS V14.00,2013-02-21 08:45:00,
2013-02-21 03:50:00,18.1,15.7,30.27,NNE,14,0.0,2.0,90,0.00,,---,0.00,VWS V14.00,2013-02-21 08:50:00,
2013-02-21 03:55:00,18.2,15.8,30.27,North,355,1.0,4.0,90,0.00,,---,0.00,VWS V14.00,2013-02-21 08:55:00,
2013-02-21 04:00:00,18.2,15.8,30.27,North,355,0.0,4.0,90,0.00,,---,0.00,VWS V14.00,2013-02-21 09:00:00,
2013-02-21 04:05:00,18.2,15.8,30.27,North,350,0.0,4.0,90,0.00,,---,0.00,VWS V14.00,2013-02-21 09:05:00,
2013-02-21 04:10:00,18.2,15.8,30.27,West,272,0.0,4.0,90,0.00,,---,0.00,VWS V14.00,2013-02-21 09:10:00,
2013-02-21 04:15:00,18.2,15.8,30.27,SW,227,3.0,5.0,90,0.00,,---,0.00,VWS V14.00,2013-02-21 09:15:00,
2013-02-21 04:20:00,18.3,15.9,30.27,SW,227,0.0,6.0,90,0.00,,---,0.00,VWS V14.00,2013-02-21 09:20:00,
2013-02-21 04:25:00,18.3,15.9,30.27,WSW,238,0.0,6.0,90,0.00,,---,0.00,VWS V14.00,2013-02-21 09:25:00,
2013-02-21 04:30:00,18.3,15.9,30.27,NNW,336,2.0,6.0,90,0.00,,---,0.00,VWS V14.00,2013-02-21 09:30:00,
2013-02-21 04:35:00,18.4,16.0,30.27,NE,42,0.0,2.0,90,0.00,,---,0.00,VWS V14.00,2013-02-21 09:35:00,
2013-02-21 04:40:00,18.4,16.2,30.27,NW,325,0.0,5.0,91,0.00,,---,0.00,VWS V14.00,2013-02-21 09:40:00,
2013-02-21 04:45:00,18.4,16.2,30.27,South,178,0.0,5.0,91,0.00,,---,0.00,VWS V14.00,2013-02-21 09:45:00,
2013-02-21 04:50:00,18.4,16.2,30.28,West,272,0.0,5.0,91,0.00,,---,0.00,VWS V14.00,2013-02-21 09:50:00,
2013-02-21 04:55:00,18.4,16.2,30.28,West,272,0.0,5.0,91,0.00,,---,0.00,VWS V14.00,2013-02-21 09:55:00,
2013-02-21 05:00:00,18.4,16.2,30.28,West,272,0.0,5.0,91,0.00,,---,0.00,VWS V14.00,2013-02-21 10:00:00,
2013-02-21 05:05:00,18.4,16.2,30.28,WNW,291,0.0,2.0,91,0.00,,---,0.00,VWS V14.00,2013-02-21 10:05:00,
2013-02-21 05:10:00,18.5,16.3,30.29,WNW,291,0.0,4.0,91,0.00,,---,0.00,VWS V14.00,2013-02-21 10:10:00,
2013-02-21 05:15:00,18.5,16.3,30.29,WNW,300,0.0,8.0,91,0.00,,---,0.00,VWS V14.00,2013-02-21 10:15:00,
2013-02-21 05:20:00,18.5,16.3,30.29,WNW,301,0.0,8.0,91,0.00,,---,0.00,VWS V14.00,2013-02-21 10:20:00,
2013-02-21 05:25:00,18.5,16.3,30.29,NW,317,0.0,11.0,91,0.00,,---,0.00,VWS V14.00,2013-02-21 10:25:00,
2013-02-21 05:30:00,18.6,16.4,30.30,NW,318,1.0,11.0,91,0.00,,---,0.00,VWS V14.00,2013-02-21 10:30:00,
2013-02-21 05:35:00,18.6,16.4,30.30,NW,321,2.0,5.0,91,0.00,,---,0.00,VWS V14.00,2013-02-21 10:35:00,
2013-02-21 05:40:00,18.6,16.4,30.30,NW,313,6.0,9.0,91,0.00,,---,0.00,VWS V14.00,2013-02-21 10:40:00,
2013-02-21 05:45:00,18.6,16.4,30.30,NW,316,1.0,9.0,91,0.00,,---,0.00,VWS V14.00,2013-02-21 10:45:00,
2013-02-21 05:50:00,18.6,16.4,30.31,NNW,331,5.0,10.0,91,0.00,,---,0.00,VWS V14.00,2013-02-21 10:50:00,
2013-02-21 05:55:00,18.5,16.3,30.31,NNW,332,9.0,11.0,91,0.00,,---,0.00,VWS V14.00,2013-02-21 10:55:00,
2013-02-21 06:00:00,18.4,16.0,30.31,NW,323,7.0,11.0,90,0.00,,---,0.00,VWS V14.00,2013-02-21 11:00:00,
2013-02-21 06:05:00,18.4,16.0,30.32,NNW,336,4.0,6.0,90,0.00,,---,0.00,VWS V14.00,2013-02-21 11:05:00,
2013-02-21 06:10:00,18.4,16.0,30.32,North,355,4.0,6.0,90,0.00,,---,0.00,VWS V14.00,2013-02-21 11:10:00,
2013-02-21 06:15:00,18.3,15.9,30.32,NNW,348,2.0,6.0,90,0.00,,---,0.00,VWS V14.00,2013-02-21 11:15:00,
2013-02-21 06:20:00,18.2,15.8,30.32,WNW,294,0.0,7.0,90,0.00,,---,0.00,VWS V14.00,2013-02-21 11:20:00,
2013-02-21 06:25:00,18.2,15.8,30.32,NNW,344,4.0,7.0,90,0.00,,---,0.00,VWS V14.00,2013-02-21 11:25:00,
2013-02-21 06:30:00,18.2,15.8,30.32,NW,306,4.0,8.0,90,0.00,,---,0.00,VWS V14.00,2013-02-21 11:30:00,
2013-02-21 06:35:00,18.2,15.8,30.32,NNW,339,6.0,6.0,90,0.00,,---,0.00,VWS V14.00,2013-02-21 11:35:00,
2013-02-21 06:39:00,18.1,15.7,30.32,NW,325,6.0,9.0,90,0.00,,---,0.00,VWS V14.00,2013-02-21 11:39:00,
2013-02-21 06:44:00,18.1,15.7,30.32,NNW,344,6.0,9.0,90,0.00,,---,0.00,VWS V14.00,2013-02-21 11:44:00,
2013-02-21 06:49:00,18.0,15.6,30.32,NNW,327,1.0,10.0,90,0.00,,---,0.00,VWS V14.00,2013-02-21 11:49:00,
2013-02-21 06:54:00,18.0,15.6,30.33,NNW,343,6.0,10.0,90,0.00,,---,0.00,VWS V14.00,2013-02-21 11:54:00,
2013-02-21 06:59:00,17.9,15.5,30.33,NW,322,4.0,10.0,90,0.00,,---,0.00,VWS V14.00,2013-02-21 11:59:00,
2013-02-21 07:04:00,17.8,15.4,30.32,North,355,4.0,10.0,90,0.00,,---,0.00,VWS V14.00,2013-02-21 12:04:00,
2013-02-21 07:09:00,17.7,15.3,30.33,North,355,2.0,10.0,90,0.00,,---,0.00,VWS V14.00,2013-02-21 12:09:00,
2013-02-21 07:14:00,17.6,15.2,30.33,North,350,2.0,10.0,90,0.00,,---,0.00,VWS V14.00,2013-02-21 12:14:00,
2013-02-21 07:20:00,17.6,15.2,30.33,North,350,5.0,10.0,90,0.00,,---,0.00,VWS V14.00,2013-02-21 12:20:00,
2013-02-21 07:25:00,17.5,15.1,30.34,North,355,7.0,10.0,90,0.00,,---,0.00,VWS V14.00,2013-02-21 12:25:00,
2013-02-21 07:30:00,17.4,15.0,30.34,NNW,344,7.0,10.0,90,0.00,,---,0.00,VWS V14.00,2013-02-21 12:30:00,
2013-02-21 07:35:00,17.4,15.0,30.35,North,355,6.0,8.0,90,0.00,,---,0.00,VWS V14.00,2013-02-21 12:35:00,
2013-02-21 07:40:00,17.3,14.9,30.35,North,350,6.0,10.0,90,0.00,,---,0.00,VWS V14.00,2013-02-21 12:40:00,
2013-02-21 07:45:00,17.3,14.9,30.35,North,351,5.0,11.0,90,0.00,,---,0.00,VWS V14.00,2013-02-21 12:45:00,
2013-02-21 07:50:00,17.3,14.9,30.36,North,360,4.0,11.0,90,0.00,,---,0.00,VWS V14.00,2013-02-21 12:50:00,
2013-02-21 07:55:00,17.2,14.8,30.36,North,355,7.0,11.0,90,0.00,,---,0.00,VWS V14.00,2013-02-21 12:55:00,
2013-02-21 08:00:00,17.0,14.3,30.36,North,355,8.0,11.0,89,0.00,,---,0.00,VWS V14.00,2013-02-21 13:00:00,
2013-02-21 08:05:00,16.9,14.2,30.36,North,355,8.0,11.0,89,0.00,,---,0.00,VWS V14.00,2013-02-21 13:05:00,
2013-02-21 08:09:00,16.9,14.5,30.37,NNW,342,4.0,11.0,90,0.00,,---,0.00,VWS V14.00,2013-02-21 13:09:00,
2013-02-21 08:14:00,16.9,14.2,30.38,NNW,346,8.0,11.0,89,0.00,,---,0.00,VWS V14.00,2013-02-21 13:14:00,
2013-02-21 08:19:00,16.9,14.2,30.38,NW,306,8.0,11.0,89,0.00,,---,0.00,VWS V14.00,2013-02-21 13:19:00,
2013-02-21 08:24:00,16.8,14.1,30.39,NW,325,4.0,11.0,89,0.00,,---,0.00,VWS V14.00,2013-02-21 13:24:00,
2013-02-21 08:29:00,16.8,14.1,30.39,NNW,331,6.0,11.0,89,0.00,,---,0.00,VWS V14.00,2013-02-21 13:29:00,
2013-02-21 08:34:00,16.8,13.9,30.38,North,355,7.0,9.0,88,0.00,,---,0.00,VWS V14.00,2013-02-21 13:34:00,
2013-02-21 08:39:00,17.0,14.1,30.38,North,355,8.0,11.0,88,0.00,,---,0.00,VWS V14.00,2013-02-21 13:39:00,
2013-02-21 08:44:00,17.1,14.2,30.38,North,355,7.0,11.0,88,0.00,,---,0.00,VWS V14.00,2013-02-21 13:44:00,
2013-02-21 08:49:00,17.0,14.1,30.38,North,11,9.0,11.0,88,0.00,,---,0.00,VWS V14.00,2013-02-21 13:49:00,
2013-02-21 08:54:00,17.0,14.1,30.38,NNW,346,5.0,12.0,88,0.00,,---,0.00,VWS V14.00,2013-02-21 13:54:00,
2013-02-21 08:59:00,17.2,14.3,30.39,NNW,339,5.0,12.0,88,0.00,,---,0.00,VWS V14.00,2013-02-21 13:59:00,
2013-02-21 09:04:00,17.2,14.3,30.39,NW,321,5.0,10.0,88,0.00,,---,0.00,VWS V14.00,2013-02-21 14:04:00,
2013-02-21 09:09:00,17.2,14.3,30.39,NNW,346,5.0,11.0,88,0.00,,---,0.00,VWS V14.00,2013-02-21 14:09:00,
2013-02-21 09:14:00,17.3,14.1,30.39,North,355,5.0,11.0,87,0.00,,---,0.00,VWS V14.00,2013-02-21 14:14:00,
2013-02-21 09:19:00,17.4,14.5,30.38,North,360,8.0,12.0,88,0.00,,---,0.00,VWS V14.00,2013-02-21 14:19:00,
2013-02-21 09:24:00,17.4,13.9,30.38,North,9,9.0,15.0,86,0.00,,---,0.00,VWS V14.00,2013-02-21 14:24:00,
2013-02-21 09:29:00,17.3,13.8,30.38,North,360,7.0,15.0,86,0.00,,---,0.00,VWS V14.00,2013-02-21 14:29:00,
2013-02-21 09:34:00,17.3,13.6,30.38,NNE,21,10.0,13.0,85,0.00,,---,0.00,VWS V14.00,2013-02-21 14:34:00,
2013-02-21 09:39:00,17.3,13.6,30.37,NNE,26,12.0,14.0,85,0.00,,---,0.00,VWS V14.00,2013-02-21 14:39:00,
2013-02-21 09:44:00,17.2,13.2,30.37,North,355,8.0,15.0,84,0.00,,---,0.00,VWS V14.00,2013-02-21 14:44:00,
2013-02-21 09:49:00,17.5,13.5,30.37,North,355,8.0,15.0,84,0.00,,---,0.00,VWS V14.00,2013-02-21 14:49:00,
2013-02-21 09:54:00,17.6,13.6,30.37,North,9,7.0,15.0,84,0.00,,---,0.00,VWS V14.00,2013-02-21 14:54:00,
2013-02-21 09:59:00,17.7,13.4,30.37,North,350,8.0,16.0,83,0.00,,---,0.00,VWS V14.00,2013-02-21 14:59:00,
2013-02-21 10:04:00,17.9,13.4,30.36,North,360,9.0,11.0,82,0.00,,---,0.00,VWS V14.00,2013-02-21 15:04:00,
2013-02-21 10:09:00,18.1,13.8,30.37,North,5,6.0,11.0,83,0.00,,---,0.00,VWS V14.00,2013-02-21 15:09:00,
2013-02-21 10:14:00,18.5,13.9,30.37,NNW,346,4.0,11.0,82,0.00,,---,0.00,VWS V14.00,2013-02-21 15:14:00,
2013-02-21 10:19:00,18.8,13.7,30.37,NNW,348,7.0,12.0,80,0.00,,---,0.00,VWS V14.00,2013-02-21 15:19:00,
2013-02-21 10:24:00,18.9,13.5,30.38,NNW,336,10.0,12.0,79,0.00,,---,0.00,VWS V14.00,2013-02-21 15:24:00,
2013-02-21 10:29:00,19.1,13.4,30.38,NW,323,5.0,12.0,78,0.00,,---,0.00,VWS V14.00,2013-02-21 15:29:00,
2013-02-21 10:34:00,19.2,13.2,30.38,North,350,9.0,11.0,77,0.00,,---,0.00,VWS V14.00,2013-02-21 15:34:00,
2013-02-21 10:39:00,19.2,13.2,30.38,NW,323,4.0,13.0,77,0.00,,---,0.00,VWS V14.00,2013-02-21 15:39:00,
2013-02-21 10:44:00,19.4,13.4,30.38,North,355,7.0,13.0,77,0.00,,---,0.00,VWS V14.00,2013-02-21 15:44:00,
2013-02-21 10:49:00,19.3,13.3,30.39,North,360,4.0,13.0,77,0.00,,---,0.00,VWS V14.00,2013-02-21 15:49:00,
2013-02-21 10:54:00,19.1,13.1,30.39,NNW,348,4.0,15.0,77,0.00,,---,0.00,VWS V14.00,2013-02-21 15:54:00,
2013-02-21 10:59:00,19.2,13.2,30.39,NNW,344,4.0,15.0,77,0.00,,---,0.00,VWS V14.00,2013-02-21 15:59:00,
2013-02-21 11:04:00,19.5,13.5,30.39,North,360,7.0,9.0,77,0.00,,---,0.00,VWS V14.00,2013-02-21 16:04:00,
2013-02-21 11:09:00,19.6,13.3,30.39,North,360,4.0,12.0,76,0.00,,---,0.00,VWS V14.00,2013-02-21 16:09:00,
2013-02-21 11:14:00,19.5,13.2,30.40,NNE,14,4.0,12.0,76,0.00,,---,0.00,VWS V14.00,2013-02-21 16:14:00,
2013-02-21 11:19:00,19.4,13.1,30.39,NNW,347,4.0,12.0,76,0.00,,---,0.00,VWS V14.00,2013-02-21 16:19:00,
2013-02-21 11:24:00,19.6,13.6,30.39,North,9,10.0,12.0,77,0.00,,---,0.00,VWS V14.00,2013-02-21 16:24:00,
2013-02-21 11:29:00,19.7,13.4,30.40,NNW,348,4.0,12.0,76,0.00,,---,0.00,VWS V14.00,2013-02-21 16:29:00,
2013-02-21 11:34:00,19.8,13.5,30.40,NNW,340,4.0,7.0,76,0.00,,---,0.00,VWS V14.00,2013-02-21 16:34:00,
2013-02-21 11:39:00,20.0,13.7,30.40,NNW,329,8.0,8.0,76,0.00,,---,0.00,VWS V14.00,2013-02-21 16:39:00,
2013-02-21 11:44:00,20.4,14.1,30.39,NNW,347,5.0,11.0,76,0.00,,---,0.00,VWS V14.00,2013-02-21 16:44:00,
2013-02-21 11:49:00,20.5,13.9,30.39,NNW,327,4.0,11.0,75,0.00,,---,0.00,VWS V14.00,2013-02-21 16:49:00,
2013-02-21 11:54:00,20.4,13.8,30.38,NNW,346,9.0,11.0,75,0.00,,---,0.00,VWS V14.00,2013-02-21 16:54:00,
2013-02-21 11:59:00,20.1,13.8,30.38,North,355,4.0,11.0,76,0.00,,---,0.00,VWS V14.00,2013-02-21 16:59:00,
2013-02-21 12:04:00,20.1,13.8,30.39,NW,311,2.0,8.0,76,0.00,,---,0.00,VWS V14.00,2013-02-21 17:04:00,
2013-02-21 12:09:00,20.3,14.0,30.38,NNW,334,2.0,11.0,76,0.00,,---,0.00,VWS V14.00,2013-02-21 17:09:00,
2013-02-21 12:14:00,20.4,13.4,30.38,North,5,6.0,11.0,74,0.00,,---,0.00,VWS V14.00,2013-02-21 17:14:00,
2013-02-21 12:19:00,20.4,13.8,30.38,NNW,338,6.0,11.0,75,0.00,,---,0.00,VWS V14.00,2013-02-21 17:19:00,
2013-02-21 12:24:00,20.4,13.4,30.38,NNW,346,9.0,11.0,74,0.00,,---,0.00,VWS V14.00,2013-02-21 17:24:00,
2013-02-21 12:29:00,20.3,13.4,30.38,NNW,346,7.0,11.0,74,0.00,,---,0.00,VWS V14.00,2013-02-21 17:29:00,
2013-02-21 12:34:00,20.3,13.4,30.38,NNW,338,4.0,8.0,74,0.00,,---,0.00,VWS V14.00,2013-02-21 17:34:00,
2013-02-21 12:39:00,20.5,13.9,30.37,North,5,3.0,9.0,75,0.00,,---,0.00,VWS V14.00,2013-02-21 17:39:00,
2013-02-21 12:44:00,20.6,13.9,30.37,North,351,5.0,9.0,75,0.00,,---,0.00,VWS V14.00,2013-02-21 17:44:00,
2013-02-21 12:49:00,20.6,13.9,30.37,NNW,348,7.0,9.0,75,0.00,,---,0.00,VWS V14.00,2013-02-21 17:49:00,
2013-02-21 12:54:00,20.4,14.4,30.38,NNE,14,6.0,9.0,77,0.00,,---,0.00,VWS V14.00,2013-02-21 17:54:00,
2013-02-21 12:59:00,20.2,14.4,30.38,North,9,6.0,11.0,78,0.00,,---,0.00,VWS V14.00,2013-02-21 17:59:00,
2013-02-21 13:04:00,20.0,14.0,30.37,North,11,5.0,9.0,77,0.00,,---,0.00,VWS V14.00,2013-02-21 18:04:00,
2013-02-21 13:09:00,19.9,14.2,30.37,NNE,17,8.0,9.0,78,0.00,,---,0.00,VWS V14.00,2013-02-21 18:09:00,
2013-02-21 13:14:00,20.0,14.6,30.37,NNE,19,8.0,9.0,79,0.00,,---,0.00,VWS V14.00,2013-02-21 18:14:00,
2013-02-21 13:19:00,19.9,14.2,30.37,NNE,24,3.0,9.0,78,0.00,,---,0.00,VWS V14.00,2013-02-21 18:19:00,
2013-02-21 13:24:00,20.1,14.4,30.37,NNW,327,6.0,9.0,78,0.00,,---,0.00,VWS V14.00,2013-02-21 18:24:00,
2013-02-21 13:29:00,20.4,14.4,30.38,NNW,327,4.0,9.0,77,0.00,,---,0.00,VWS V14.00,2013-02-21 18:29:00,
2013-02-21 13:34:00,20.7,14.4,30.38,NW,324,0.0,4.0,76,0.00,,---,0.00,VWS V14.00,2013-02-21 18:34:00,
2013-02-21 13:39:00,20.7,14.4,30.38,NNW,345,5.0,7.0,76,0.00,,---,0.00,VWS V14.00,2013-02-21 18:39:00,
2013-02-21 13:44:00,20.6,14.6,30.38,North,351,4.0,7.0,77,0.00,,---,0.00,VWS V14.00,2013-02-21 18:44:00,
2013-02-21 13:49:00,20.5,14.7,30.38,North,351,1.0,7.0,78,0.00,,---,0.00,VWS V14.00,2013-02-21 18:49:00,
2013-02-21 13:54:00,20.6,14.8,30.38,NNW,346,0.0,7.0,78,0.00,,---,0.00,VWS V14.00,2013-02-21 18:54:00,
2013-02-21 13:59:00,20.7,14.9,30.37,NNE,22,5.0,10.0,78,0.00,,---,0.00,VWS V14.00,2013-02-21 18:59:00,
2013-02-21 14:04:00,20.7,14.6,30.37,NW,326,5.0,5.0,77,0.00,,---,0.00,VWS V14.00,2013-02-21 19:04:00,
2013-02-21 14:09:00,20.7,14.6,30.36,NNW,346,5.0,9.0,77,0.00,,---,0.00,VWS V14.00,2013-02-21 19:09:00,
2013-02-21 14:14:00,20.6,14.2,30.36,NNE,14,4.0,9.0,76,0.00,,---,0.00,VWS V14.00,2013-02-21 19:14:00,
2013-02-21 14:19:00,20.4,14.4,30.36,NNW,340,8.0,11.0,77,0.00,,---,0.00,VWS V14.00,2013-02-21 19:19:00,
2013-02-21 14:24:00,20.4,14.6,30.36,NNE,15,3.0,11.0,78,0.00,,---,0.00,VWS V14.00,2013-02-21 19:24:00,
2013-02-21 14:29:00,20.4,14.4,30.36,NNE,15,2.0,11.0,77,0.00,,---,0.00,VWS V14.00,2013-02-21 19:29:00,
2013-02-21 14:34:00,20.7,14.4,30.37,NW,325,0.0,5.0,76,0.00,,---,0.00,VWS V14.00,2013-02-21 19:34:00,
2013-02-21 14:39:00,20.9,14.5,30.36,North,360,4.0,7.0,76,0.00,,---,0.00,VWS V14.00,2013-02-21 19:39:00,
2013-02-21 14:44:00,20.8,14.4,30.35,NNW,345,5.0,10.0,76,0.00,,---,0.00,VWS V14.00,2013-02-21 19:44:00,
2013-02-21 14:49:00,20.7,14.6,30.35,NNE,24,9.0,10.0,77,0.00,,---,0.00,VWS V14.00,2013-02-21 19:49:00,
2013-02-21 14:54:00,20.6,14.8,30.35,North,360,3.0,10.0,78,0.00,,---,0.00,VWS V14.00,2013-02-21 19:54:00,
2013-02-21 14:59:00,20.4,14.6,30.35,North,11,6.0,10.0,78,0.00,,---,0.00,VWS V14.00,2013-02-21 19:59:00,
2013-02-21 15:04:00,20.5,14.7,30.35,NNW,343,5.0,7.0,78,0.00,,---,0.00,VWS V14.00,2013-02-21 20:04:00,
2013-02-21 15:09:00,20.8,14.7,30.34,North,355,8.0,10.0,77,0.00,,---,0.00,VWS V14.00,2013-02-21 20:09:00,
2013-02-21 15:14:00,20.8,14.4,30.34,NNW,331,1.0,10.0,76,0.00,,---,0.00,VWS V14.00,2013-02-21 20:14:00,
2013-02-21 15:19:00,21.1,15.3,30.34,NNW,343,7.0,10.0,78,0.00,,---,0.00,VWS V14.00,2013-02-21 20:19:00,
2013-02-21 15:24:00,21.0,14.9,30.34,NNW,340,6.0,10.0,77,0.00,,---,0.00,VWS V14.00,2013-02-21 20:24:00,
2013-02-21 15:29:00,21.0,14.9,30.34,NNW,346,9.0,10.0,77,0.00,,---,0.00,VWS V14.00,2013-02-21 20:29:00,
2013-02-21 15:34:00,21.0,14.9,30.34,NNE,26,4.0,11.0,77,0.00,,---,0.00,VWS V14.00,2013-02-21 20:34:00,
2013-02-21 15:39:00,20.9,14.8,30.33,NNE,25,9.0,11.0,77,0.00,,---,0.00,VWS V14.00,2013-02-21 20:39:00,
2013-02-21 15:44:00,20.8,14.7,30.33,NNE,17,8.0,13.0,77,0.00,,---,0.00,VWS V14.00,2013-02-21 20:44:00,
2013-02-21 15:49:00,20.8,15.0,30.33,NNE,17,4.0,13.0,78,0.00,,---,0.00,VWS V14.00,2013-02-21 20:49:00,
2013-02-21 15:54:00,20.6,14.8,30.34,NNE,22,8.0,13.0,78,0.00,,---,0.00,VWS V14.00,2013-02-21 20:54:00,
2013-02-21 15:59:00,20.4,14.6,30.34,North,5,10.0,13.0,78,0.00,,---,0.00,VWS V14.00,2013-02-21 20:59:00,
2013-02-21 16:04:00,20.3,14.6,30.35,NNE,29,9.0,11.0,78,0.00,,---,0.00,VWS V14.00,2013-02-21 21:04:00,
2013-02-21 16:09:00,20.3,14.6,30.34,NE,39,3.0,11.0,78,0.00,,---,0.00,VWS V14.00,2013-02-21 21:09:00,
2013-02-21 16:14:00,20.3,14.6,30.35,North,11,7.0,11.0,78,0.00,,---,0.00,VWS V14.00,2013-02-21 21:14:00,
2013-02-21 16:19:00,20.3,14.8,30.35,NNE,13,9.0,11.0,79,0.00,,---,0.00,VWS V14.00,2013-02-21 21:19:00,
2013-02-21 16:24:00,20.3,14.8,30.35,NNE,13,4.0,11.0,79,0.00,,---,0.00,VWS V14.00,2013-02-21 21:24:00,
2013-02-21 16:29:00,20.3,14.6,30.35,NE,34,3.0,11.0,78,0.00,,---,0.00,VWS V14.00,2013-02-21 21:29:00,
2013-02-21 16:34:00,20.4,14.6,30.36,NE,34,2.0,4.0,78,0.00,,---,0.00,VWS V14.00,2013-02-21 21:34:00,
2013-02-21 16:39:00,20.4,14.6,30.35,NNE,32,5.0,6.0,78,0.00,,---,0.00,VWS V14.00,2013-02-21 21:39:00,
2013-02-21 16:44:00,20.4,14.4,30.36,NNE,32,2.0,6.0,77,0.00,,---,0.00,VWS V14.00,2013-02-21 21:44:00,
2013-02-21 16:49:00,20.3,14.3,30.36,NNE,30,4.0,9.0,77,0.00,,---,0.00,VWS V14.00,2013-02-21 21:49:00,
2013-02-21 16:54:00,20.4,14.4,30.37,NE,36,4.0,9.0,77,0.00,,---,0.00,VWS V14.00,2013-02-21 21:54:00,
2013-02-21 16:59:00,20.5,14.4,30.37,NE,36,2.0,9.0,77,0.00,,---,0.00,VWS V14.00,2013-02-21 21:59:00,
2013-02-21 17:04:00,20.5,14.4,30.37,NE,36,3.0,4.0,77,0.00,,---,0.00,VWS V14.00,2013-02-21 22:04:00,
2013-02-21 17:09:00,20.6,14.2,30.37,NE,36,2.0,5.0,76,0.00,,---,0.00,VWS V14.00,2013-02-21 22:09:00,
2013-02-21 17:14:00,20.6,14.2,30.37,NE,38,4.0,7.0,76,0.00,,---,0.00,VWS V14.00,2013-02-21 22:14:00,
2013-02-21 17:19:00,20.6,14.2,30.37,NE,38,5.0,7.0,76,0.00,,---,0.00,VWS V14.00,2013-02-21 22:19:00,
2013-02-21 17:24:00,20.5,14.1,30.37,NE,34,2.0,7.0,76,0.00,,---,0.00,VWS V14.00,2013-02-21 22:24:00,
2013-02-21 17:29:00,20.4,14.1,30.37,NE,34,2.0,7.0,76,0.00,,---,0.00,VWS V14.00,2013-02-21 22:29:00,
2013-02-21 17:34:00,20.3,14.3,30.37,NE,36,2.0,6.0,77,0.00,,---,0.00,VWS V14.00,2013-02-21 22:34:00,
2013-02-21 17:39:00,20.2,14.2,30.37,NE,36,6.0,7.0,77,0.00,,---,0.00,VWS V14.00,2013-02-21 22:39:00,
2013-02-21 17:44:00,20.2,14.2,30.38,NE,35,3.0,7.0,77,0.00,,---,0.00,VWS V14.00,2013-02-21 22:44:00,
2013-02-21 17:49:00,20.1,14.4,30.38,NNE,32,5.0,8.0,78,0.00,,---,0.00,VWS V14.00,2013-02-21 22:49:00,
2013-02-21 17:54:00,20.1,14.4,30.38,NNE,33,4.0,8.0,78,0.00,,---,0.00,VWS V14.00,2013-02-21 22:54:00,
2013-02-21 17:59:00,20.0,14.3,30.38,NE,34,2.0,8.0,78,0.00,,---,0.00,VWS V14.00,2013-02-21 22:59:00,
2013-02-21 18:04:00,20.0,14.3,30.38,NE,35,5.0,7.0,78,0.00,,---,0.00,VWS V14.00,2013-02-21 23:04:00,
2013-02-21 18:09:00,19.9,14.2,30.38,NE,35,2.0,7.0,78,0.00,,---,0.00,VWS V14.00,2013-02-21 23:09:00,
2013-02-21 18:14:00,19.9,14.2,30.38,NE,46,4.0,8.0,78,0.00,,---,0.00,VWS V14.00,2013-02-21 23:14:00,
2013-02-21 18:19:00,19.8,14.1,30.38,NE,46,3.0,8.0,78,0.00,,---,0.00,VWS V14.00,2013-02-21 23:19:00,
2013-02-21 18:24:00,19.7,14.0,30.38,NE,47,4.0,8.0,78,0.00,,---,0.00,VWS V14.00,2013-02-21 23:24:00,
2013-02-21 18:29:00,19.7,14.0,30.38,NE,47,4.0,8.0,78,0.00,,---,0.00,VWS V14.00,2013-02-21 23:29:00,
2013-02-21 18:34:00,19.7,14.0,30.39,NE,49,2.0,4.0,78,0.00,,---,0.00,VWS V14.00,2013-02-21 23:34:00,
2013-02-21 18:39:00,19.5,13.8,30.39,NE,49,3.0,5.0,78,0.00,,---,0.00,VWS V14.00,2013-02-21 23:39:00,
2013-02-21 18:44:00,19.4,13.7,30.39,NE,49,0.0,5.0,78,0.00,,---,0.00,VWS V14.00,2013-02-21 23:44:00,
2013-02-21 18:49:00,19.4,13.7,30.39,NE,49,0.0,5.0,78,0.00,,---,0.00,VWS V14.00,2013-02-21 23:49:00,
2013-02-21 18:54:00,19.3,13.6,30.38,NE,49,2.0,5.0,78,0.00,,---,0.00,VWS V14.00,2013-02-21 23:54:00,
2013-02-21 18:59:00,19.1,13.7,30.38,NE,49,2.0,5.0,79,0.00,,---,0.00,VWS V14.00,2013-02-21 23:59:00,
2013-02-21 19:04:00,19.1,13.7,30.38,NE,49,1.0,3.0,79,0.00,,---,0.00,VWS V14.00,2013-02-22 00:04:00,
2013-02-21 19:09:00,19.0,13.6,30.39,NE,49,0.0,3.0,79,0.00,,---,0.00,VWS V14.00,2013-02-22 00:09:00,
2013-02-21 19:14:00,18.9,13.5,30.38,NE,49,2.0,3.0,79,0.00,,---,0.00,VWS V14.00,2013-02-22 00:14:00,
2013-02-21 19:19:00,18.8,13.7,30.40,NE,49,0.0,3.0,80,0.00,,---,0.00,VWS V14.00,2013-02-22 00:19:00,
2013-02-21 19:24:00,18.6,13.5,30.39,NE,49,0.0,3.0,80,0.00,,---,0.00,VWS V14.00,2013-02-22 00:24:00,
2013-02-21 19:29:00,18.5,13.4,30.39,NE,49,0.0,3.0,80,0.00,,---,0.00,VWS V14.00,2013-02-22 00:29:00,
2013-02-21 19:34:00,18.4,13.6,30.38,NE,49,1.0,2.0,81,0.00,,---,0.00,VWS V14.00,2013-02-22 00:34:00,
2013-02-21 19:39:00,18.2,13.4,30.38,NE,49,4.0,4.0,81,0.00,,---,0.00,VWS V14.00,2013-02-22 00:39:00,
2013-02-21 19:44:00,18.2,13.6,30.37,NE,49,3.0,5.0,82,0.00,,---,0.00,VWS V14.00,2013-02-22 00:44:00,
2013-02-21 19:49:00,18.3,13.7,30.37,NE,49,3.0,6.0,82,0.00,,---,0.00,VWS V14.00,2013-02-22 00:49:00,
2013-02-21 19:54:00,18.4,13.8,30.37,NE,48,3.0,7.0,82,0.00,,---,0.00,VWS V14.00,2013-02-22 00:54:00,
2013-02-21 19:59:00,18.5,13.9,30.36,NE,48,4.0,7.0,82,0.00,,---,0.00,VWS V14.00,2013-02-22 00:59:00,
2013-02-21 20:04:00,18.5,13.9,30.36,NE,46,2.0,7.0,82,0.00,,---,0.00,VWS V14.00,2013-02-22 01:04:00,
2013-02-21 20:09:00,18.6,14.0,30.36,NE,49,4.0,7.0,82,0.00,,---,0.00,VWS V14.00,2013-02-22 01:09:00,
2013-02-21 20:14:00,18.6,13.8,30.36,NE,51,2.0,10.0,81,0.00,,---,0.00,VWS V14.00,2013-02-22 01:14:00,
2013-02-21 20:19:00,18.6,13.8,30.35,ENE,57,6.0,10.0,81,0.00,,---,0.00,VWS V14.00,2013-02-22 01:19:00,
2013-02-21 20:24:00,18.6,13.8,30.35,ENE,59,2.0,10.0,81,0.00,,---,0.00,VWS V14.00,2013-02-22 01:24:00,
2013-02-21 20:29:00,18.5,13.6,30.35,NE,41,1.0,10.0,81,0.00,,---,0.00,VWS V14.00,2013-02-22 01:29:00,
2013-02-21 20:34:00,18.5,15.8,30.35,NE,51,3.0,5.0,89,0.00,,---,0.00,VWS V14.00,2013-02-22 01:34:00,
2013-02-21 20:39:00,18.5,13.6,30.35,NE,55,1.0,5.0,81,0.00,,---,0.00,VWS V14.00,2013-02-22 01:39:00,
2013-02-21 20:44:00,18.4,13.6,30.34,ENE,61,2.0,7.0,81,0.00,,---,0.00,VWS V14.00,2013-02-22 01:44:00,
2013-02-21 20:49:00,18.5,13.9,30.34,NE,46,6.0,9.0,82,0.00,,---,0.00,VWS V14.00,2013-02-22 01:49:00,
2013-02-21 20:54:00,18.5,13.9,30.33,ENE,63,5.0,9.0,82,0.00,,---,0.00,VWS V14.00,2013-02-22 01:54:00,
2013-02-21 20:59:00,18.5,13.9,30.33,ENE,71,4.0,9.0,82,0.00,,---,0.00,VWS V14.00,2013-02-22 01:59:00,
2013-02-21 21:04:00,18.6,14.0,30.33,East,88,5.0,8.0,82,0.00,,---,0.00,VWS V14.00,2013-02-22 02:04:00,
2013-02-21 21:09:00,18.6,14.0,30.33,NE,44,2.0,10.0,82,0.00,,---,0.00,VWS V14.00,2013-02-22 02:09:00,
2013-02-21 21:14:00,18.6,14.0,30.33,NE,52,3.0,10.0,82,0.00,,---,0.00,VWS V14.00,2013-02-22 02:14:00,
2013-02-21 21:19:00,18.6,14.0,30.32,ENE,76,3.0,10.0,82,0.00,,---,0.00,VWS V14.00,2013-02-22 02:19:00,
2013-02-21 21:24:00,18.6,14.0,30.33,ENE,74,0.0,10.0,82,0.00,,---,0.00,VWS V14.00,2013-02-22 02:24:00,
2013-02-21 21:29:00,18.6,14.0,30.33,ENE,69,2.0,10.0,82,0.00,,---,0.00,VWS V14.00,2013-02-22 02:29:00,
2013-02-21 21:34:00,18.6,14.0,30.33,ENE,72,2.0,5.0,82,0.00,,---,0.00,VWS V14.00,2013-02-22 02:34:00,
2013-02-21 21:39:00,18.7,14.1,30.33,ENE,61,0.0,5.0,82,0.00,,---,0.00,VWS V14.00,2013-02-22 02:39:00,
2013-02-21 21:44:00,18.7,14.1,30.33,ESE,105,2.0,7.0,82,0.00,,---,0.00,VWS V14.00,2013-02-22 02:44:00,
2013-02-21 21:49:00,18.7,14.1,30.33,ENE,59,0.0,7.0,82,0.00,,---,0.00,VWS V14.00,2013-02-22 02:49:00,
2013-02-21 21:54:00,18.7,14.1,30.33,ENE,71,3.0,8.0,82,0.00,,---,0.00,VWS V14.00,2013-02-22 02:54:00,
2013-02-21 21:59:00,18.7,14.1,30.33,ENE,71,2.0,8.0,82,0.00,,---,0.00,VWS V14.00,2013-02-22 02:59:00,
2013-02-21 22:04:00,18.7,14.1,30.33,ENE,78,2.0,6.0,82,0.00,,---,0.00,VWS V14.00,2013-02-22 03:04:00,
2013-02-21 22:09:00,18.8,14.5,30.33,ENE,58,0.0,6.0,83,0.00,,---,0.00,VWS V14.00,2013-02-22 03:09:00,
2013-02-21 22:14:00,18.8,14.5,30.33,East,96,0.0,9.0,83,0.00,,---,0.00,VWS V14.00,2013-02-22 03:14:00,
2013-02-21 22:19:00,18.8,14.5,30.32,ENE,69,4.0,9.0,83,0.00,,---,0.00,VWS V14.00,2013-02-22 03:19:00,
2013-02-21 22:24:00,18.9,14.6,30.33,East,91,5.0,9.0,83,0.00,,---,0.00,VWS V14.00,2013-02-22 03:24:00,
2013-02-21 22:29:00,18.9,14.6,30.32,East,92,5.0,9.0,83,0.00,,---,0.00,VWS V14.00,2013-02-22 03:29:00,
2013-02-21 22:34:00,19.0,14.7,30.31,ESE,106,1.0,7.0,83,0.00,,---,0.00,VWS V14.00,2013-02-22 03:34:00,
2013-02-21 22:39:00,19.0,14.7,30.31,ESE,121,5.0,9.0,83,0.00,,---,0.00,VWS V14.00,2013-02-22 03:39:00,
2013-02-21 22:44:00,19.0,14.4,30.31,East,79,5.0,12.0,82,0.00,,---,0.00,VWS V14.00,2013-02-22 03:44:00,
2013-02-21 22:49:00,19.0,14.4,30.31,ESE,119,0.0,12.0,82,0.00,,---,0.00,VWS V14.00,2013-02-22 03:49:00,
2013-02-21 22:54:00,19.1,14.5,30.31,NE,55,2.0,12.0,82,0.00,,---,0.00,VWS V14.00,2013-02-22 03:54:00,
2013-02-21 22:59:00,19.1,14.5,30.31,East,80,2.0,12.0,82,0.00,,---,0.00,VWS V14.00,2013-02-22 03:59:00,
2013-02-21 23:04:00,19.1,14.5,30.32,ESE,115,1.0,8.0,82,0.00,,---,0.00,VWS V14.00,2013-02-22 04:04:00,
2013-02-21 23:09:00,19.1,14.5,30.32,ESE,110,7.0,8.0,82,0.00,,---,0.00,VWS V14.00,2013-02-22 04:09:00,
2013-02-21 23:14:00,19.1,14.5,30.31,East,87,2.0,8.0,82,0.00,,---,0.00,VWS V14.00,2013-02-22 04:14:00,
2013-02-21 23:19:00,19.1,14.5,30.31,ESE,102,2.0,8.0,82,0.00,,---,0.00,VWS V14.00,2013-02-22 04:19:00,
2013-02-21 23:24:00,19.0,14.7,30.31,SE,128,5.0,8.0,83,0.00,,---,0.00,VWS V14.00,2013-02-22 04:24:00,
2013-02-21 23:29:00,19.0,14.7,30.31,East,96,2.0,8.0,83,0.00,,---,0.00,VWS V14.00,2013-02-22 04:29:00,
2013-02-21 23:34:00,19.0,14.7,30.31,ESE,120,2.0,8.0,83,0.00,,---,0.00,VWS V14.00,2013-02-22 04:34:00,
2013-02-21 23:39:00,19.0,14.7,30.31,East,94,5.0,8.0,83,0.00,,---,0.00,VWS V14.00,2013-02-22 04:39:00,
2013-02-21 23:44:00,19.0,14.7,30.30,ENE,61,1.0,8.0,83,0.00,,---,0.00,VWS V14.00,2013-02-22 04:44:00,
2013-02-21 23:49:00,19.0,14.7,30.30,ESE,111,0.0,8.0,83,0.00,,---,0.00,VWS V14.00,2013-02-22 04:49:00,
2013-02-21 23:54:00,19.0,14.7,30.31,East,95,1.0,8.0,83,0.00,,---,0.00,VWS V14.00,2013-02-22 04:54:00,
2013-02-21 23:59:00,19.0,14.7,30.31,ESE,108,4.0,8.0,83,0.00,,---,0.00,VWS V14.00,2013-02-22 04:59:00,